Overview Statistics Trail Chart Weather Telemetry Raw packets
 

This is the latest recevied weather packets stored in our database for station/object KB1RMA-4. If no packets are shown the sender has not sent any weather packets the latest 10 day(s).

<< 41 42 43 44 45 46 47 >>
Time Temp. Humidity Pressure Rain* Wind** Luminosity Snow
1788352783 17.78° C 92% 1022.4 hPa 0 mm - 67 W/m² -
1788352480 17.78° C 93% 1022.6 hPa 0 mm - 71 W/m² -
1788352178 17.78° C 93% 1022.6 hPa 0 mm - 69 W/m² -
1788351874 17.22° C 94% 1022.5 hPa 0 mm - 60 W/m² -
1788351569 17.78° C 94% 1022.9 hPa 0 mm - 47 W/m² -
1788351264 17.78° C 95% 1022.6 hPa 0 mm - 56 W/m² -
1788350964 17.22° C 96% 1022.5 hPa 0 mm - 50 W/m² -
1788350661 17.78° C 96% 1022.9 hPa 0 mm - 58 W/m² -
1788350360 17.22° C 96% 1022.6 hPa 0 mm - 47 W/m² -
1788350056 17.22° C 96% 1022.5 hPa 0 mm - 51 W/m² -
1788349753 17.22° C 96% 1022.6 hPa 0 mm - 62 W/m² -
1788349448 17.22° C 97% 1022.6 hPa 0 mm - 48 W/m² -
1788349143 17.22° C 97% 1022.8 hPa 0 mm - 19 W/m² -
1788348839 17.22° C 97% 1022.7 hPa 0 mm - 25 W/m² -
1788348537 17.22° C 97% 1022.4 hPa 0 mm - 26 W/m² -
1788348234 17.22° C 97% 1022.3 hPa 0 mm - 34 W/m² -
1788347930 17.22° C 97% 1022.2 hPa 0 mm - 49 W/m² -
1788347626 17.78° C 97% 1022.1 hPa 0 mm - 51 W/m² -
1788347321 17.78° C 97% 1022.3 hPa 0 mm - 34 W/m² -
1788347017 17.78° C 97% 1022 hPa 0 mm - 32 W/m² -
1788346717 17.22° C 97% 1022 hPa 0 mm - 46 W/m² -
1788346412 17.22° C 97% 1021.9 hPa 0 mm - 25 W/m² -
1788346107 17.22° C 97% 1022.1 hPa 0 mm - 30 W/m² -
1788345804 17.22° C 97% 1021.9 hPa 0 mm - 21 W/m² -
1788345503 17.22° C 97% 1022 hPa 0 mm - 10 W/m² -

* Rain latest hour (hover to see other rain measurements)
** Current wind speed in m/s (hover to see current wind gust speed)